Location: Gudip?du
(17.0263°N, 80.8301°E)
Time: 01:24:41
(UTC+00:00)

SL-16 R/B - Pass Details

Date: 03 August 2024
Orbit: 985 x 1006 km, 99.7° (Epoch: 12 September)

Event Time Altitude Azimuth Distance (km) Brightness Sun altitude
Exits shadow 21:43:23 52° 6° (N) 1,210 3.0 -33.9°
Drops below altitude 10° 21:47:56 10° 351° (N) 2,738 5.1 -33.0°
Sets 21:50:24 0° 350° (N) 3,687 5.8 -32.5°
